This is the latest recevied weather packets stored in our database for station/object N8TWM-13. If no packets are shown the sender has not sent any weather packets the latest 10 day(s).
| Time | Temp. | Humidity | Pressure | Rain* | Wind** | Luminosity | Snow |
|---|---|---|---|---|---|---|---|
| 1777912327 | 18.89° C | 60% | 1007.7 hPa | 0 mm | - | 422 W/m² | - |
| 1777912023 | 18.89° C | 59% | 1007.8 hPa | 0 mm | - | 711 W/m² | - |
| 1777911719 | 18.89° C | 57% | 1008 hPa | 0 mm | - | 730 W/m² | - |
| 1777911416 | 18.33° C | 59% | 1008 hPa | 0 mm | - | 735 W/m² | - |
| 1777911114 | 18.33° C | 58% | 1007.9 hPa | 0 mm | - | 726 W/m² | - |
| 1777910811 | 18.33° C | 60% | 1008.3 hPa | 0 mm | - | 285 W/m² | - |
| 1777910507 | 18.33° C | 61% | 1008.4 hPa | 0 mm | - | 184 W/m² | - |
| 1777910204 | 17.78° C | 59% | 1008 hPa | 0 mm | - | 713 W/m² | - |
| 1777909901 | 18.33° C | 58% | 1008.1 hPa | 0 mm | - | 689 W/m² | - |
| 1777909598 | 18.33° C | 59% | 1008 hPa | 0 mm | - | 717 W/m² | - |
| 1777909296 | 17.78° C | 58% | 1007.9 hPa | 0 mm | - | 726 W/m² | - |
| 1777908993 | 18.33° C | 59% | 1008.1 hPa | 0 mm | - | 736 W/m² | - |
| 1777908691 | 17.78° C | 60% | 1008.1 hPa | 0 mm | - | 730 W/m² | - |
| 1777908388 | 17.78° C | 58% | 1008.1 hPa | 0 mm | - | 121 W/m² | - |
| 1777908084 | 17.78° C | 58% | 1008.1 hPa | 0 mm | - | 773 W/m² | - |
| 1777907780 | 17.78° C | 59% | 1008.1 hPa | 0 mm | - | 755 W/m² | - |
| 1777907475 | 17.22° C | 59% | 1008.1 hPa | 0 mm | - | 766 W/m² | - |
| 1777907173 | 17.22° C | 59% | 1008.1 hPa | 0 mm | - | 755 W/m² | - |
| 1777906869 | 17.22° C | 59% | 1008.4 hPa | 0 mm | - | 755 W/m² | - |
| 1777906567 | 17.78° C | 60% | 1008.5 hPa | 0 mm | - | 787 W/m² | - |
| 1777906262 | 17.78° C | 58% | 1008.6 hPa | 0 mm | - | 796 W/m² | - |
| 1777905959 | 17.22° C | 59% | 1008.3 hPa | 0 mm | - | 794 W/m² | - |
| 1777905655 | 17.22° C | 59% | 1008.4 hPa | 0 mm | - | 753 W/m² | - |
| 1777905353 | 17.22° C | 59% | 1008.1 hPa | 0 mm | - | 718 W/m² | - |
| 1777905050 | 16.67° C | 59% | 1008.4 hPa | 0 mm | - | 720 W/m² | - |
* Rain latest hour (hover to see other rain measurements)
** Current wind speed in m/s (hover to see current wind gust speed)